User: anonymous   Login
Location: Fort Wayne
(41.1310°N, 85.1290°W)
Time: 07:58:11
(UTC-04:00)
Language:

Tiros 1 despin weight - Orbit

View from above orbital plane
View from above orbital plane
View from above satellite
View from above satellite

Ground track
Ground track

The orbit data is extracted from the following two-line orbital elements,

1 00115U 60002D   15181.51864483  .00000405  00000-0  77420-4 0  9993
2 00115 048.1678 350.3292 0035591 180.8076 179.2784 14.82167395943729
Epoch (UTC): 30 June 2015 12:26:50
Eccentricity: 0.0035591
inclination: 48.1678°
perigee height: 597 km
apogee height: 647 km
right ascension of ascending node: 350.3292°
argument of perigee: 180.8076°
revolutions per day: 14.82167395
mean anomaly at epoch: 179.2784°
orbit number at epoch: 94372

The dashed part of the orbit path shows where the satellite is in the earth's shadow,  

DLR